Find KUIPER-00370

NORAD ID: 68919 Int'l Des: 2026-098A Owner: KUIP Country: US Constellation: amazon-leo operational
LEOCIRCULAR

現在のビュー

3D地球を読み込み中...

About KUIPER-00370

KUIPER-00370 (NORAD 68919) is a amazon-leo constellation satellite launched Apr 30, 2026 by KUIP of US. It operates in LEO, CIRCULAR orbit with a mass of 490.00 kg.

KUIPER-00370について

説明を読み込み中...

次回通過

Passes for default location (London). Set your location on the main map for personalized predictions.

高度履歴

Loading altitude history...

軌道要素

1 68919U 26098A 26170.38898733 -.00005321 00000-0 -17787-3 0 9999
2 68919 51.8738 58.7019 0014100 157.6701 202.4898 15.28134703 7666
Epoch: Jun 19, 2026 • Age: 20 hours

現在のステータス

高度 500.1 km
速度 7.61 km/s
衛星直下点 -31.92°S, 33.8°E
打ち上げ日 Apr 30, 2026
運用期間 0.1 years
タイプ internet

技術仕様

分類 Payload
質量 490.00 kg
乾燥質量 490.00 kg
総質量 490.00 kg
長さ 1.80 m
直径 0.70 m
スパン 5.00 m
形状 Box + 2 pan
製造者 KUIP
バスタイプ Kuiper
フェーズステータス In Orbit
所有者/国 KUIP/US

Most Searched